Hovedside
METAR-TAF:

METAR-TAF

Lufthavner :

Hemavan flyplass

Hemavan, Sverige

breddegrad: 65-48-22N, lengdegrad: 015-04-58E, høyde over havet: 458 m

Gjeldene værobservasjon

Denne rapporten ble laget for 5 minutter siden, klokken 19:50 UTC
Vind 6 kt fra Nordøst
Temperatur 12°C
Luftfuktighet 94%
Trykk 1004 hPa
Sikt: 4500 m
regn

METAR: ESUT 161950Z AUTO 05006KT 4500 RA VV033 12/11 Q1004

Tid: 21:55 (19:55 UTC)


TAF: fraværende

Værobservasjoner og værvarsel for over 4000 flyplasser (METAR- og TAF-rapporter).

Tilgjengelige stasjoner er representert av de røde og gule prikkene på kartet.

Hold musepekeren over prikken for å se navnet på stasjonen.

Klikk så for å se værobservasjoner og -varsler.

For å forandre kartet kan du klikke på den grønne knappen med svart kryss for å zoome inn, på den grønne knappen med strek for å zoome ut, eller på de grønne pilene for å se tilstøtende kart.


METAR-TAF: